Location: Newark
(54.8972°N, 99.8189°W)
Time: 22:04:43
(UTC+00:00)

Transit 4A - All Passes

Search period start: 17 November 2019 00:00
Search period end: 27 November 2019 00:00
Orbit: 868 x 976 km, 66.8° (Epoch: 17 November)

Date Brightness Start Highest point End Pass type
(mag) Time Alt. Az. Time Alt. Az. Time Alt. Az.
17 Nov - 04:42:57 10° S 04:48:38 38° ESE 04:54:12 10° NE night (unlit)
17 Nov - 06:28:36 10° SW 06:34:47 66° NW 06:40:51 10° NE visible
17 Nov - 08:16:48 10° WNW 08:22:12 31° NNW 08:27:30 10° NE visible
17 Nov - 10:05:08 10° NW 10:10:17 28° N 10:15:20 10° ENE visible
17 Nov - 11:52:08 10° NW 11:57:59 50° NE 12:03:41 10° ESE visible
17 Nov - 13:38:42 10° NW 13:44:28 53° WSW 13:50:06 10° SSE daylight
17 Nov - 15:27:33 10° W 15:29:30 12° W 15:31:24 10° WSW daylight
18 Nov - 03:10:45 10° ESE 03:12:45 12° E 03:14:45 10° E night (unlit)
18 Nov - 04:51:50 10° SSW 04:57:49 51° ESE 05:03:41 10° NE night (unlit)
18 Nov - 06:38:12 10° WSW 06:44:17 53° NW 06:50:12 10° NE visible
18 Nov - 08:26:40 10° WNW 08:31:54 28° NNW 08:37:02 10° NE visible
18 Nov - 10:14:44 10° NW 10:19:59 30° NNE 10:25:08 10° ENE visible
18 Nov - 12:01:30 10° NW 12:07:28 61° NE 12:13:16 10° ESE visible
18 Nov - 13:48:11 10° NW 13:53:39 39° WSW 13:59:00 10° S daylight
19 Nov - 03:17:56 10° SE 03:21:43 17° ESE 03:25:26 10° ENE night (unlit)
19 Nov - 05:00:54 10° SSW 05:07:04 67° SE 05:13:07 10° NE night (unlit)
19 Nov - 06:47:55 10° WSW 06:53:48 44° NNW 06:59:35 10° NE visible
19 Nov - 08:36:29 10° WNW 08:41:37 27° N 08:46:38 10° NE visible
19 Nov - 10:24:15 10° NW 10:29:40 33° NNE 10:34:57 10° E visible
19 Nov - 12:10:53 10° NW 12:16:54 77° NE 12:22:45 10° SE visible
19 Nov - 13:57:46 10° NW 14:02:46 29° WSW 14:07:40 10° S daylight
20 Nov - 03:25:58 10° SSE 03:30:43 23° ESE 03:35:23 10° ENE night (unlit)
20 Nov - 05:10:09 10° SW 05:16:23 86° SE 05:22:29 10° NE night (unlit)
20 Nov - 06:57:41 10° W 07:03:23 37° NNW 07:08:58 10° NE visible
20 Nov - 08:46:16 10° WNW 08:51:21 26° N 08:56:19 10° ENE visible
20 Nov - 10:33:43 10° NW 10:39:18 37° NNE 10:44:44 10° E visible
20 Nov - 12:20:16 10° NW 12:26:16 83° SW 12:32:06 10° SE visible
20 Nov - 14:07:32 10° WNW 14:11:48 21° WSW 14:16:02 10° SSW daylight
21 Nov - 03:34:25 10° S 03:39:48 31° ESE 03:45:05 10° NE night (unlit)
21 Nov - 05:19:32 10° SW 05:25:46 76° NW 05:31:51 10° NE night (unlit)
21 Nov - 07:07:31 10° W 07:13:02 33° NNW 07:18:25 10° NE visible
21 Nov - 08:55:59 10° NW 09:01:04 27° N 09:06:04 10° ENE visible
21 Nov - 10:43:09 10° NW 10:48:53 44° NNE 10:54:29 10° ESE visible
21 Nov - 12:29:40 10° NW 12:35:34 64° SW 12:41:18 10° SSE visible
21 Nov - 14:17:38 10° WNW 14:20:47 15° WSW 14:23:55 10° SW daylight
22 Nov - 03:43:09 10° S 03:48:57 42° ESE 03:54:38 10° NE night (unlit)
22 Nov - 05:29:04 10° WSW 05:35:12 61° NW 05:41:13 10° NE night (unlit)
22 Nov - 07:17:23 10° WNW 07:22:42 30° NNW 07:27:54 10° NE visible
22 Nov - 09:05:38 10° NW 09:10:48 28° NNE 09:15:51 10° ENE visible
22 Nov - 10:52:32 10° NW 10:58:25 53° NE 11:04:08 10° ESE visible
22 Nov - 12:39:07 10° NW 12:44:47 48° WSW 12:50:20 10° SSE visible
23 Nov - 02:10:12 10° SE 02:12:59 13° ESE 02:15:46 10° ENE night (unlit)
23 Nov - 03:52:06 10° SSW 03:58:09 56° ESE 04:04:05 10° NE night (unlit)
23 Nov - 05:38:43 10° WSW 05:44:43 49° NW 05:50:34 10° NE night (unlit)
23 Nov - 07:27:14 10° WNW 07:32:25 28° N 07:37:28 10° NE visible
23 Nov - 09:15:12 10° NW 09:20:29 30° NNE 09:25:40 10° ENE visible
23 Nov - 11:01:55 10° NW 11:07:53 66° NE 11:13:42 10° SE visible
23 Nov - 12:48:38 10° NW 12:53:56 35° WSW 12:59:08 10° S visible
24 Nov - 02:17:48 10° SSE 02:21:58 19° ESE 02:26:04 10° ENE night (unlit)
24 Nov - 04:01:15 10° SSW 04:07:26 74° SE 04:13:30 10° NE night (unlit)
24 Nov - 05:48:27 10° W 05:54:16 41° NNW 05:59:57 10° NE night (unlit)
24 Nov - 07:37:03 10° WNW 07:42:07 27° N 07:47:06 10° NE visible
24 Nov - 09:24:42 10° NW 09:30:09 34° NNE 09:35:28 10° E visible
24 Nov - 11:11:17 10° NW 11:17:17 84° NE 11:23:08 10° SE visible
24 Nov - 12:58:16 10° WNW 13:03:02 26° WSW 13:07:43 10° SSW visible
25 Nov - 02:26:00 10° SSE 02:31:00 26° ESE 02:35:55 10° ENE night (unlit)
25 Nov - 04:10:33 10° SW 04:16:47 87° NW 04:22:52 10° NE night (unlit)
25 Nov - 05:58:15 10° W 06:03:52 35° NNW 06:09:21 10° NE night (unlit)
25 Nov - 07:46:49 10° NW 07:51:51 26° N 07:56:48 10° ENE visible
25 Nov - 09:34:08 10° NW 09:39:46 39° NNE 09:45:15 10° E visible
25 Nov - 11:20:40 10° NW 11:26:37 76° SW 11:32:26 10° SSE visible
25 Nov - 13:08:07 10° WNW 13:12:03 19° WSW 13:15:56 10° SSW visible
26 Nov - 02:34:34 10° S 02:40:06 35° ESE 02:45:32 10° NE night (unlit)
26 Nov - 04:19:59 10° SW 04:26:11 70° NW 04:32:13 10° NE night (unlit)
26 Nov - 06:08:06 10° W 06:13:31 31° NNW 06:18:49 10° NE night (unlit)
26 Nov - 07:56:30 10° NW 08:01:35 27° N 08:06:34 10° ENE visible
26 Nov - 09:43:33 10° NW 09:49:20 47° NNE 09:54:57 10° ESE visible
26 Nov - 11:30:05 10° NW 11:35:54 57° WSW 11:41:34 10° SSE visible
26 Nov - 13:18:29 10° WNW 13:21:00 13° WSW 13:23:31 10° SW visible
